Location: Waco, TX
(31.5480°N, 97.1670°W)
Time: 02:14:51
(UTC-06:00)

ISS - Pass Details

Date: 01 February 2021
Orbit: 417 x 422 km, 51.6° (Epoch: 09 March)

Event Time Altitude Azimuth Distance (km) Brightness Sun altitude
Rises 19:42:18 0° 332° (NNW) 2,371 0.3 -21.2°
Enters shadow 19:44:27 - 350° (N) 1,685 -0.7 -21.7°
Reaches altitude 10° 19:45:11 10° 359° (N) 1,505 - -21.8°
Maximum altitude 19:47:05 14° 33° (NNE) 1,274 - -22.2°
Drops below altitude 10° 19:48:59 10° 68° (ENE) 1,502 - -22.6°
Sets 19:51:50 0° 94° (E) 2,363 - -23.2°
